Regional Weather Roundup
Issued by NWS

Home | Current Version | Previous Version | Graphics & Text | Print | Product List | Glossary On
Versions: 1 2 3 4 5 6 7 8 9 10 11 12 13 14 15 16 17 18 19 20 21 22 23 24 25 26 27 28 29 30 31 32 33 34 35 36 37 38 39 40 41 42 43 44 45 46 47 48 49 50
000
ASUS45 KSLC 300310
RWRUT

UTAH REGIONAL WEATHER ROUNDUP
NATIONAL WEATHER SERVICE SALT LAKE CITY UT
900 PM MDT FRI JUL 29 2016

UTZ001>011-023>025-300400-

NORTHERN UTAH

CITY           SKY/WX    TMP DP  RH WIND       PRES   REMARKS
BRIGHAM CITY     N/A     89  40  17 CALM      29.94R
HILL AFB       CLEAR     90  39  16 VRB1      29.99R
LOGAN          CLEAR     82  45  27 NW5       29.95R
OGDEN          CLEAR     88  41  19 W5        29.95R
PROVO AIRPORT  PTCLDY    88  46  23 NW6       29.96R
SALT LAKE CITY PTCLDY    92  36  14 N5        29.93R
VERNAL         CLEAR     77  41  27 NW5       29.99R
WENDOVER       MOCLDY    90  39  17 W13       29.96S
HEBER CITY     CLEAR     77  36  22 CALM      30.05R
WEST JORDAN    CLEAR     88  39  18 W6        29.98

$$

UTZ012>022-026-027-300400-

SOUTHERN/CENTRAL UTAH

CITY           SKY/WX    TMP DP  RH WIND       PRES   REMARKS
BLANDING       MOCLDY    83  30  14 CALM      30.12R
BRYCE CANYON   MOCLDY    72  35  25 N5        30.28R
CEDAR CITY     CLOUDY    78  46  32 CALM      30.15R
DELTA          MOCLDY    90  34  13 SW8       29.98S
MILFORD        CLOUDY    89  39  17 W22G30    30.02S
MOAB/CYNLANDS  PTCLDY    93  31  11 N5        29.91R
PRICE          MOCLDY    87  33  14 NW10      30.06R
ST GEORGE      CLEAR     99  46  16 NW18      29.87R HX  95

$$

REGIONAL REPORTS     COLORADO/ARIZONA

CITY           SKY/WX    TMP DP  RH WIND       PRES   REMARKS
CRAIG, CO      CLEAR     74  36  25 VRB5      30.07S
GRAND JUNCTION CLOUDY    84  41  21 NW3       29.96R
RIFLE          CLOUDY    83  34  17 E5        30.02R
MONTROSE       CLOUDY    80  39  23 W6        30.08R
CORTEZ         CLEAR     74  40  29 E8        30.05R
PAGE, AZ       MOCLDY    94  38  14 W9        29.94R
GRAND CANYON   MOCLDY    72  48  42 CALM      30.21F
KINGMAN        PTCLDY    97  53  22 SW16      29.89R HX  94
FLAGSTAFF      CLOUDY    69  45  41 CALM      30.23R

$$

REGIONAL REPORTS    NEVADA/IDAHO/WYOMING

CITY           SKY/WX    TMP DP  RH WIND       PRES   REMARKS
LAS VEGAS, NV  PTCLDY   108  39   9 CALM      29.69R HX 102
ELY            MOCLDY    73  48  41 SE14      30.16R
ELKO           PTCLDY    91  32  12 NE7       29.99R
POCATELLO, ID  CLEAR     83  39  21 S12       29.93S
BURLEY         CLEAR     74  54  49 S7        29.90F
EVANSTON, WY   CLEAR     75  29  18 W9        30.20R
ROCK SPRINGS   CLEAR     78  22  12 W13       30.12R
KEMMERER         N/A    N/A N/A N/A W6        30.20R

$$



USA.gov is the U.S. government's official web portal to all federal, state and local government web resources and services.